Regional Weather Roundup
Issued by NWS Newport/Morehead, NC

Home | Current Version | Previous Version | Text Only | Print | Product List | Glossary On
Versions: 1 2 3 4 5 6 7 8 9 10 11 12 13 14 15 16 17 18 19 20 21 22 23 24 25 26 27 28 29 30 31 32 33 34 35 36 37 38 39 40 41 42 43 44 45 46 47 48 49 50
000
ASUS42 KMHX 301825
RWRMHX
WEATHER ROUNDUP FOR EASTERN NORTH CAROLINA
NATIONAL WEATHER SERVICE NEWPORT/MOREHEAD CITY NC
200 PM EDT SAT APR 30 2016

NOTE: "FAIR" INDICATES FEW OR NO CLOUDS BELOW 12,000 FEET
WITH NO SIGNIFICANT WEATHER AND/OR OBSTRUCTIONS TO VISIBILITY

NCZ015>017-031-032-045>047-102-103-301900-
NORTH COAST

CITY           SKY/WX    TMP DP  RH WIND       PRES   REMARKS
EDENTON        CLOUDY    63  55  75 N6        30.18S
ELIZABETH CITY PTSUNNY   62  53  72 NE10      30.18R
KITTY HAWK     CLOUDY    57  51  79 NE6       30.17R
MANTEO         NOT AVBL

$$

NCZ045>047-081-094-103-104-301900-
CENTRAL COAST

CITY           SKY/WX    TMP DP  RH WIND       PRES   REMARKS
FRISCO         CLOUDY    60  54  80 NE7       30.16R
SWANQUARTER    NOT AVBL

$$

NCZ095-097-098-100-101-301900-
SOUTHERN COAST

CITY           SKY/WX    TMP DP  RH WIND       PRES   REMARKS
BEAUFORT       CLOUDY    66  57  72 NE9       30.14S
CEDAR ISLAND   NOT AVBL
JACKSONVILLE   CLOUDY    70  58  65 E9        30.11F
PINEY ISLAND   NOT AVBL
WILMINGTON     CLOUDY    67  59  75 E12       30.12S


$$

NCZ011>013-027>030-043-044-078>080-089-090>093-098-301900-
COASTAL PLAIN

CITY           SKY/WX    TMP DP  RH WIND       PRES   REMARKS
AHOSKIE        CLOUDY    58  53  81 E3        30.18F
CLINTON        CLOUDY    71  61  71 CALM      30.12S
ELIZABETHTOWN  CLOUDY    69  61  76 CALM      30.11S
GOLDSBORO      PTSUNNY   70  61  73 E8        30.12S
GREENVILLE     CLOUDY    61  57  88 E6        30.18S
HAVELOCK       CLOUDY    64  57  78 NE13      30.16S
KENANSVILLE    CLOUDY    71  58  63 CALM      30.13S
KINSTON        PTSUNNY   64  57  77 NE12      30.16S
NEW BERN       CLOUDY    62  56  80 E7        30.16F
RICHLANDS      CLOUDY    71  59  65 E7        30.12F
ROCKY MOUNT    CLOUDY    60  56  86 NE6       30.16F
WASHINGTON     CLOUDY    60  55  82 NE8       30.17S
WHITEVILLE     CLOUDY    70  63  78 NE9       30.10S HAZE

$$

AMZ130-135-150-152-154-156-158-170-250-252-270-ANZ085-086-088-633-658-670-301900-
MARINE OBSERVATIONS

STATION/POSITION TIME  TEMP    WIND        PRES    WAVE   SWELL
                       AIR SEA DIR/SP/G            HT/PER HT/PER
                 (UTC) (F)     (DEG/KT/KT) (MB)    (FT/S) (FT/S)
CHESAPEAKE LIGHT 1800   52      20/ 13/ 14 1022.7
64 E VA BEACH    1750   52 53   20/ 14/ 16 1020.8    6/10   5/10
DUCK             1800   53 67   20/ 14/ 16 1021.3
2 E DUCK         1811      58                N/A     5/10   2/11
OREGON INLET     1800   56 62  350/ 10/ 15 1021.1
13E OREGON INLT  1800      55                N/A     6/10   5/10
HATTERAS CG      1800   59 68   20/  9/ 13 1020.9
DIAMOND BUOY     1750   59 74   10/ 14/ 17 1020.7    5/10   5/10
CAPE LOOKOUT     1800   63      40/ 12/ 14 1020.2
BEAUFORT LAB     1800   64 67   60/  8/ 11 1019.7
30 SE NEW RVR IN 1725      68                N/A     3/10
27 SE WRIGHTSVLE 1808   66 70   60/ 14/ 17 1018.9
5 SE WRIGHTSVLE  1808   65 68   70/ 14/ 17 1020.4
225 S CAPE HAT   1750   70 72   60/ 12/ 14 1017.9    4/ 5   3/ 5
41 SE CHARLESTON 1750   75 73  100/ 10/ 12 1017.2    2/ 9   2/ 9

$$



USA.gov is the U.S. government's official web portal to all federal, state and local government web resources and services.